Siloam Springs, AR

9:51 PM CST on February 24, 2017 (GMT -0600)
Smith

Weather History for KSLG - January, 2013

Change the Weather History Date:

Tuesday, January 15, 2013

  Actual Average Record
Temperature  
Mean Temperature 25 °F -  
Max Temperature 33 °F 43 °F 66 °F (2006)
Min Temperature 17 °F 27 °F 12 °F (2009)
Degree Days  
Heating Degree Days 40    
Moisture  
Dew Point 13 °F    
Average Humidity 63    
Maximum Humidity 80    
Minimum Humidity 41    
Precipitation  
Precipitation 0.00 in - - ()
Sea Level Pressure  
Sea Level Pressure 30.24 in    
Wind  
Wind Speed 5 mph (ENE)    
Max Wind Speed 15 mph    
Max Gust Speed 18 mph    
Visibility 10 miles    
Events      
Averages and records for this station are not official NWS values.
T = Trace of Precipitation, MM = Missing Value Source: NWS Daily Summary

Daily Weather History Graph

Daily Weather History Graph

Search for Another Location

Airport or City:

Trip Planner

Search our weather history database for the weather conditions in past years. The results will help you decide how hot, cold, wet, or windy it might be!

Date:

Astronomy

Jan. 15, 2013 Rise Set
Actual Time 7:28 AM CST 5:27 PM CST
Civil Twilight 7:00 AM CST 5:55 PM CST
Nautical Twilight 6:28 AM CST 6:26 PM CST
Astronomical Twilight 5:57 AM CST 6:57 PM CST
Moon 9:43 AM CST (1/15) 10:07 PM CST (1/15)
Length of Visible Light 10h 54m
Length of Day
9h 58m
Waxing Crescent, 19% of the Moon is Illuminated
Jan 15
Waxing Crescent
Jan 18
First Quarter
Jan 26
Full
Feb 3
Last Quarter
Feb 10
New

Hourly Weather History & Observations

Time (CST) Temp. Windchill Dew Point Humidity Pressure Visibility Wind Dir Wind Speed Gust Speed Precip Events Conditions
12:16 AM 19.4 °F 14.3 °F 10.4 °F 68% 30.31 in 10.0 mi ENE 3.5 mph - N/A   Clear
12:35 AM 19.4 °F 14.3 °F 10.4 °F 68% 30.31 in 10.0 mi NE 3.5 mph - N/A   Clear
12:55 AM 19.4 °F 12.8 °F 10.4 °F 68% 30.31 in 10.0 mi ENE 4.6 mph - N/A   Clear
1:35 AM 19.4 °F 11.5 °F 10.4 °F 68% 30.30 in 10.0 mi ENE 5.8 mph - N/A   Clear
1:55 AM 19.4 °F 14.3 °F 10.4 °F 68% 30.30 in 10.0 mi East 3.5 mph - N/A   Clear
2:15 AM 19.4 °F 14.3 °F 10.4 °F 68% 30.30 in 10.0 mi East 3.5 mph - N/A   Clear
2:36 AM 19.4 °F 14.3 °F 10.4 °F 68% 30.29 in 10.0 mi East 3.5 mph - N/A   Clear
2:55 AM 19.4 °F 12.8 °F 10.4 °F 68% 30.28 in 10.0 mi NE 4.6 mph - N/A   Clear
3:35 AM 19.4 °F 12.8 °F 10.4 °F 68% 30.28 in 10.0 mi ENE 4.6 mph - N/A   Clear
3:55 AM 19.4 °F 12.8 °F 12.2 °F 74% 30.27 in 10.0 mi NE 4.6 mph - N/A   Clear
4:15 AM 19.4 °F 11.5 °F 12.2 °F 74% 30.27 in 10.0 mi ENE 5.8 mph - N/A   Clear
5:15 AM 17.6 °F 12.3 °F 10.4 °F 73% 30.27 in 10.0 mi NE 3.5 mph - N/A   Clear
5:35 AM 19.4 °F - 12.2 °F 74% 30.26 in 10.0 mi Calm Calm - N/A   Clear
5:55 AM 19.4 °F - 12.2 °F 74% 30.27 in 10.0 mi Calm Calm - N/A   Partly Cloudy
6:16 AM 19.4 °F - 12.2 °F 74% 30.26 in 10.0 mi Calm Calm - N/A   Partly Cloudy
6:35 AM 19.4 °F 12.8 °F 12.2 °F 74% 30.27 in 10.0 mi East 4.6 mph - N/A   Partly Cloudy
6:55 AM 19.4 °F 12.8 °F 12.2 °F 74% 30.27 in 10.0 mi East 4.6 mph - N/A   Partly Cloudy
7:35 AM 21.2 °F 8.3 °F 10.4 °F 63% 30.21 in 10.0 mi East 13.8 mph 18.4 mph N/A   Clear
7:55 AM 21.2 °F 13.6 °F 10.4 °F 63% 30.27 in 10.0 mi East 5.8 mph - N/A   Mostly Cloudy
8:15 AM 21.2 °F 14.9 °F 10.4 °F 63% 30.28 in 10.0 mi East 4.6 mph - N/A   Overcast
8:35 AM 21.2 °F 13.6 °F 12.2 °F 68% 30.31 in 10.0 mi ENE 5.8 mph - N/A   Overcast
8:55 AM 21.2 °F 16.4 °F 12.2 °F 68% 30.31 in 10.0 mi East 3.5 mph - N/A   Overcast
9:15 AM 21.2 °F 12.6 °F 12.2 °F 68% 30.30 in 10.0 mi ESE 6.9 mph - N/A   Overcast
9:36 AM 23.0 °F 10.1 °F 12.2 °F 63% 30.29 in 10.0 mi ESE 15.0 mph - N/A   Overcast
9:55 AM 24.8 °F 14.0 °F 12.2 °F 59% 30.29 in 10.0 mi East 11.5 mph 16.1 mph N/A   Overcast
10:15 AM 24.8 °F 16.9 °F 12.2 °F 59% 30.28 in 10.0 mi East 6.9 mph - N/A   Overcast
10:35 AM 24.8 °F 14.6 °F 12.2 °F 59% 30.26 in 10.0 mi East 10.4 mph - N/A   Mostly Cloudy
11:15 AM 26.6 °F 15.7 °F 10.4 °F 51% 30.23 in 10.0 mi East 12.7 mph - N/A   Mostly Cloudy
11:35 AM 30.2 °F 20.8 °F 12.2 °F 47% 30.22 in 10.0 mi ESE 11.5 mph 16.1 mph N/A   Scattered Clouds
11:56 AM 30.2 °F 22.6 °F 14.0 °F 51% 30.22 in 10.0 mi East 8.1 mph 16.1 mph N/A   Clear
12:15 PM 32.0 °F 26.4 °F 14.0 °F 48% 30.21 in 10.0 mi East 5.8 mph - N/A   Clear
12:35 PM 32.0 °F 27.5 °F 12.2 °F 44% 30.20 in 10.0 mi ENE 4.6 mph - N/A   Clear
1:35 PM 33.8 °F 27.7 °F 14.0 °F 44% 30.17 in 10.0 mi ENE 6.9 mph - N/A   Overcast
1:55 PM 33.8 °F 28.6 °F 12.2 °F 41% 30.16 in 10.0 mi East 5.8 mph - N/A   Overcast
2:15 PM 33.8 °F 26.4 °F 14.0 °F 44% 30.16 in 10.0 mi ENE 9.2 mph - N/A   Overcast
3:15 PM 33.8 °F 28.6 °F 12.2 °F 41% 30.17 in 10.0 mi ENE 5.8 mph - N/A   Overcast
3:35 PM 33.8 °F 28.6 °F 12.2 °F 41% 30.18 in 10.0 mi NNE 5.8 mph - N/A   Overcast
3:55 PM 33.8 °F 27.7 °F 12.2 °F 41% 30.19 in 10.0 mi NE 6.9 mph - N/A   Overcast
5:35 PM 32.0 °F 24.8 °F 14.0 °F 48% 30.20 in 10.0 mi North 8.1 mph - N/A   Overcast
5:55 PM 30.2 °F 23.4 °F 14.0 °F 51% 30.20 in 10.0 mi North 6.9 mph - N/A   Overcast
6:35 PM 30.2 °F 23.4 °F 15.8 °F 55% 30.21 in 10.0 mi North 6.9 mph - N/A   Overcast
6:55 PM 30.2 °F 24.3 °F 15.8 °F 55% 30.21 in 10.0 mi North 5.8 mph - N/A   Overcast
7:16 PM 30.2 °F 23.4 °F 17.6 °F 60% 30.20 in 10.0 mi North 6.9 mph - N/A   Overcast
7:35 PM 30.2 °F 24.3 °F 17.6 °F 60% 30.20 in 10.0 mi North 5.8 mph - N/A   Overcast
7:55 PM 28.4 °F 20.4 °F 17.6 °F 64% 30.20 in 10.0 mi North 8.1 mph - N/A   Mostly Cloudy
8:16 PM 28.4 °F 20.4 °F 17.6 °F 64% 30.18 in 10.0 mi North 8.1 mph - N/A   Mostly Cloudy
8:35 PM 26.6 °F 18.2 °F 17.6 °F 69% 30.18 in 10.0 mi North 8.1 mph - N/A   Partly Cloudy
8:55 PM 24.8 °F 19.1 °F 17.6 °F 74% 30.19 in 10.0 mi North 4.6 mph - N/A   Clear
9:35 PM 24.8 °F 16.1 °F 17.6 °F 74% 30.20 in 10.0 mi North 8.1 mph - N/A   Partly Cloudy
9:55 PM 24.8 °F - 17.6 °F 74% 30.21 in 10.0 mi Calm Calm - N/A   Partly Cloudy
10:15 PM 24.8 °F - 15.8 °F 69% 30.20 in 10.0 mi Calm Calm - N/A   Partly Cloudy
10:55 PM 21.2 °F - 15.8 °F 80% 30.18 in 10.0 mi Calm Calm - N/A   Clear
11:15 PM 21.2 °F - 15.8 °F 80% 30.18 in 10.0 mi Calm Calm - N/A   Clear
11:36 PM 21.2 °F - 15.8 °F 80% 30.19 in 10.0 mi Calm Calm - N/A   Clear